Weather History for Clinton-Sherman, OK

Change the Weather History Date:

Thursday, April 25, 2013

  Actual Average Record
Temperature  
Mean Temperature 50 °F -  
Max Temperature 66 °F 71 °F 99 °F (2012)
Min Temperature 35 °F 48 °F 35 °F (2013)
Degree Days  
Heating Degree Days 16    
Moisture  
Dew Point 32 °F    
Average Humidity 50    
Maximum Humidity 82    
Minimum Humidity 24    
Precipitation  
Precipitation 0.00 in - - ()
Sea Level Pressure  
Sea Level Pressure 30.24 in    
Wind  
Wind Speed 11 mph (South)    
Max Wind Speed 24 mph    
Max Gust Speed 30 mph    
Visibility 10 miles    
Events      
Averages and records for this station are not official NWS values.
T = Trace of Precipitation, MM = Missing Value Source: NWS Daily Summary

Daily Weather History Graph

Daily Weather History Graph

Search for Another Location

Airport:

Trip Planner

Search our weather history database for the weather conditions in past years. The results will help you decide how hot, cold, wet, or windy it might be!

Date:

Astronomy

Apr. 25, 2013 Rise Set
Actual Time 6:51 AM CDT 8:18 PM CDT
Civil Twilight 6:24 AM CDT 8:45 PM CDT
Nautical Twilight 5:52 AM CDT 9:17 PM CDT
Astronomical Twilight 5:19 AM CDT 9:50 PM CDT
Moon 8:31 PM CDT (4/25) 6:35 AM CDT (4/25)
Length of Visible Light 14h 20m
Length of Day
13h 26m
Full, 100% of the Moon is Illuminated
Apr 25
Full
Apr 25
Full
May 2
Last Quarter
May 9
New
May 17
First Quarter

Hourly Weather History & Observations

Time (CDT) Temp. Windchill Dew Point Humidity Pressure Visibility Wind Dir Wind Speed Gust Speed Precip Events Conditions
12:53 AM 39.9 °F 35.1 °F 33.1 °F 77% 30.33 in 10.0 mi South 6.9 mph - N/A   Clear
1:53 AM 36.0 °F 30.3 °F 30.0 °F 79% 30.33 in 10.0 mi South 6.9 mph - N/A   Clear
2:53 AM 37.0 °F - 30.9 °F 79% 30.32 in 10.0 mi North - - N/A   Clear
3:53 AM 39.0 °F 32.8 °F 30.9 °F 73% 30.31 in 10.0 mi South 9.2 mph - N/A   Clear
4:53 AM 37.0 °F 29.8 °F 30.9 °F 79% 30.31 in 10.0 mi SSW 10.4 mph - N/A   Clear
5:53 AM 35.1 °F 27.4 °F 30.0 °F 82% 30.32 in 10.0 mi SW 10.4 mph - N/A   Clear
6:53 AM 35.1 °F 27.9 °F 30.0 °F 82% 30.32 in 10.0 mi SSW 9.2 mph - N/A   Clear
7:53 AM 41.0 °F 37.1 °F 30.9 °F 67% 30.33 in 10.0 mi SSW 5.8 mph - N/A   Clear
8:53 AM 48.9 °F - 32.0 °F 52% 30.33 in 10.0 mi SSW 10.4 mph - N/A   Clear
9:53 AM 53.1 °F - 32.0 °F 45% 30.31 in 10.0 mi SSW 9.2 mph - N/A   Clear
10:53 AM 55.9 °F - 34.0 °F 44% 30.31 in 10.0 mi South 9.2 mph - N/A   Clear
11:53 AM 60.1 °F - 32.0 °F 35% 30.31 in 10.0 mi South 13.8 mph - N/A   Clear
12:53 PM 62.1 °F - 28.9 °F 29% 30.30 in 10.0 mi South 13.8 mph - N/A   Clear
1:53 PM 61.0 °F - 27.0 °F 27% 30.27 in 10.0 mi South 15.0 mph 21.9 mph N/A   Clear
2:53 PM 64.9 °F - 27.0 °F 24% 30.25 in 10.0 mi South 19.6 mph 27.6 mph N/A   Partly Cloudy
3:53 PM 63.0 °F - 28.9 °F 28% 30.20 in 10.0 mi SSE 17.3 mph - N/A   Clear
4:53 PM 63.0 °F - 30.0 °F 29% 30.17 in 10.0 mi SSE 18.4 mph 25.3 mph N/A   Clear
5:53 PM 64.0 °F - 30.0 °F 28% 30.16 in 10.0 mi SSE 19.6 mph 25.3 mph N/A   Mostly Cloudy
6:53 PM 63.0 °F - 33.1 °F 33% 30.15 in 10.0 mi SE 12.7 mph - N/A   Overcast
7:53 PM 62.1 °F - 36.0 °F 38% 30.12 in 10.0 mi SE 10.4 mph - N/A   Overcast
8:53 PM 60.1 °F - 34.0 °F 38% 30.10 in 10.0 mi SE 12.7 mph - N/A   Overcast
9:53 PM 60.1 °F - 33.1 °F 36% 30.13 in 10.0 mi SE 13.8 mph - N/A   Overcast
10:53 PM 59.0 °F - 37.0 °F 44% 30.11 in 10.0 mi SE 18.4 mph - N/A   Mostly Cloudy
11:53 PM 57.9 °F - 37.0 °F 46% 30.06 in 10.0 mi SSE 24.2 mph 29.9 mph N/A   Clear